星链-5768 (STARLINK-5768 )

导读

STARLINK-5768是美国SpaceX星链卫星互联网项目的卫星,于北京时间2023年6月23日8时发射入轨,属于星链低轨卫星星座组网卫星。该卫星依托星链计划,为全球提供高速低延迟互联网服务,尤其是覆盖偏远地区。作为星链批量部署的卫星之一,它助力星链持续扩展星座规模,完善全球卫星互联网覆盖能力。

基本信息
目录编号:
57145
目录名称:
STARLINK-5768
国际标识:
2023-090AW
轨道中心:
EARTH
卫星名称:
星链-5768
卫星全名:
星链-5768 (STARLINK-5768 )
卫星状态:
在轨 (已飞行1169 天)
发射日期:
2023-06-23 UTC
国别 :
美国 (US)
星等 :
--
轨道信息
数据来源 国际轨道数据 AOE轨道数据
星历时间 2026-09-04T11:24:29+0800
8小时前
查看轨道信息
2026-09-01T01:00:00+0800
3天前
查看轨道信息
半长轴 6861.19km 6861.198km
偏心率 0.0001297 0.0001511
轨道倾角 43.003° 43.003°
近地点辐角 269.710° 266.089°
升交点赤经 335.678° 355.071°
平近点角 90.360° 269.140°
近地点 482.163km 482.024km
远地点 483.943km 484.098km
周期 94.267分钟 94.267分钟
每日圈数 15.275788 15.275761
详细信息
固有亮度:
5
最大亮度:
2.4
卫星平台:
Starlink v1.5
覆盖范围:
全球
运营商:
太空探索技术公司
运营商所在国:
美国
制造商(研发单位):
太空探索技术公司
制造商所在国:
美国
使用方式:
暂无
卫星简介
星链(Starlink)计划是由太空探索技术公司(SpaceX)提出的一个巨型低轨卫星互联网星座项目,计划在2019年至2024年间在太空搭建由约1.2万颗卫星组成的“星链”网络,其中1584颗将部署在地球上空550千米处的近地轨道,并从2020年开始工作。该卫星仍在工作。
2D轨道图
3D轨道图
轨道高度分析图
轨道倾角分析图
轨道综合分析图
查看轨道综合分析图
交会数据列表
事件ID 空间交会对象 最接近时刻(TCA) 交会距离 交会风险概率(CRP) 交会风险指数(CRI) 操作
CDM_260906-113105-714506-652721
2026-09-06T
11:31:57+0000
0.279 km
中距离
2.088911E-4 高风险 0.81
CDM_260905-173305-714506-358721
2026-09-05T
17:33:32+0000
0.492 km
远距离
1.130614E-4 高风险 0.76
CDM_260904-222705-714506-710422
2026-09-04T
22:27:52+0000
0.609 km
远距离
8.251476E-5 中风险 0.73
CDM_260905-102905-714506-358721
2026-09-05T
10:29:51+0000
0.951 km
远距离
1.520423E-5 中风险 0.59
CDM_260906-121905-714506-652721
2026-09-06T
12:19:01+0000
0.872 km
远距离
8.926869E-6 低风险 0.54
CDM_260904-225405-602405-714522
2026-09-04T
22:54:43+0000
1.281 km
极远距离
8.60998E-6 低风险 0.54
CDM_260904-212005-602405-714522
2026-09-04T
21:20:34+0000
1.339 km
极远距离
7.404162E-6 低风险 0.52
CDM_260905-000205-714506-710422
2026-09-05T
00:02:02+0000
1.501 km
极远距离
4.283201E-6 低风险 0.48
CDM_260904-205305-714506-710422
2026-09-04T
20:53:43+0000
1.604 km
极远距离
3.481189E-6 低风险 0.46
CDM_260905-120405-714506-358721
2026-09-05T
12:04:00+0000
1.568 km
极远距离
2.855353E-6 低风险 0.44